User: anonymous   Login
Location: Unspecified
(0.0000°N, 0.0000°E)
Time: 01:58:39
(UTC+00:00)
Language:

COMPASS 1 - Orbit

View from above orbital plane
View from above orbital plane
View from above satellite
View from above satellite

Ground track
Ground track

The orbit data is extracted from the following two-line orbital elements,

1 32787U 08021E   17147.83650330 +.00000736 +00000-0 +76787-4 0  9991
2 32787 097.5615 181.7815 0012053 199.1918 160.8849 14.92574998492416
Epoch (UTC): 27 May 2017 20:04:33
Eccentricity: 0.0012053
inclination: 97.5615°
perigee height: 581 km
apogee height: 598 km
right ascension of ascending node: 181.7815°
argument of perigee: 199.1918°
revolutions per day: 14.92574998
mean anomaly at epoch: 160.8849°
orbit number at epoch: 49241

The dashed part of the orbit path shows where the satellite is in the earth's shadow,  

DLR